Weather History for Jackson, WY

Change the Weather History Date:

Monday, January 7, 2013

  Actual Average Record
Temperature  
Mean Temperature 8 °F -  
Max Temperature 26 °F 21 °F 51 °F (2009)
Min Temperature -9 °F -2 °F -42 °F (1979)
Degree Days  
Heating Degree Days 56    
Moisture  
Dew Point 3 °F    
Average Humidity 92    
Maximum Humidity 100    
Minimum Humidity 84    
Precipitation  
Precipitation 0.01 in - - ()
Sea Level Pressure  
Sea Level Pressure 30.04 in    
Wind  
Wind Speed 6 mph (NE)    
Max Wind Speed 14 mph    
Max Gust Speed -    
Visibility 9 miles    
Events Snow    
Averages and records for this station are not official NWS values.
T = Trace of Precipitation, MM = Missing Value Source: NWS Daily Summary

Daily Weather History Graph

Daily Weather History Graph

Search for Another Location

Airport:

Trip Planner

Search our weather history database for the weather conditions in past years. The results will help you decide how hot, cold, wet, or windy it might be!

Date:

Astronomy

Jan. 07, 2013 Rise Set
Actual Time 7:55 AM MST 5:03 PM MST
Civil Twilight 7:23 AM MST 5:35 PM MST
Nautical Twilight 6:47 AM MST 6:11 PM MST
Astronomical Twilight 6:13 AM MST 6:45 PM MST
Moon 3:21 AM MST (1/7) 1:18 PM MST (1/7)
Length of Visible Light 10h 11m
Length of Day
9h 07m
Waning Crescent, 22% of the Moon is Illuminated
Jan 7
Waning Crescent
Jan 11
New
Jan 18
First Quarter
Jan 26
Full
Feb 3
Last Quarter

Hourly Weather History & Observations

Time (MST) Temp. Windchill Dew Point Humidity Pressure Visibility Wind Dir Wind Speed Gust Speed Precip Events Conditions
12:15 AM -7.6 °F -22.1 °F -9.4 °F 92% 30.06 in 10.0 mi North 6.9 mph - N/A   Clear
12:35 AM -5.8 °F -23.4 °F -7.6 °F 92% 30.07 in 10.0 mi North 10.4 mph - N/A   Clear
12:55 AM -5.8 °F -16.7 °F -7.6 °F 92% 30.07 in 10.0 mi ENE 4.6 mph - N/A   Clear
1:15 AM -7.6 °F -25.7 °F -9.4 °F 92% 30.08 in 10.0 mi North 10.4 mph - N/A   Clear
1:55 AM -7.6 °F -20.6 °F -9.4 °F 92% 30.08 in 10.0 mi North 5.8 mph - N/A   Clear
2:15 AM -5.8 °F -19.9 °F -7.6 °F 92% 30.08 in 10.0 mi North 6.9 mph - N/A   Clear
2:35 AM -7.6 °F -20.6 °F -9.4 °F 92% 30.08 in 10.0 mi NNE 5.8 mph - N/A   Clear
2:55 AM -7.6 °F -20.6 °F -9.4 °F 92% 30.08 in 10.0 mi NNE 5.8 mph - N/A   Clear
3:15 AM -9.4 °F -24.3 °F -11.2 °F 92% 30.08 in 10.0 mi North 6.9 mph - N/A   Clear
3:35 AM -7.6 °F -18.8 °F -9.4 °F 92% 30.07 in 10.0 mi ENE 4.6 mph - N/A   Clear
3:55 AM -9.4 °F -25.6 °F - N/A% 30.08 in 10.0 mi North 8.1 mph - N/A   Clear
4:15 AM -7.6 °F -20.6 °F -9.4 °F 92% 30.08 in 10.0 mi NNE 5.8 mph - N/A   Clear
4:35 AM -7.6 °F -22.1 °F -9.4 °F 92% 30.08 in 10.0 mi NNE 6.9 mph - N/A   Clear
4:55 AM -5.8 °F -18.4 °F -7.6 °F 92% 30.07 in 10.0 mi North 5.8 mph - N/A   Clear
5:15 AM -7.6 °F -18.8 °F -9.4 °F 92% 30.07 in 10.0 mi North 4.6 mph - N/A   Clear
5:35 AM -5.8 °F -18.4 °F -9.4 °F 84% 30.07 in 10.0 mi ENE 5.8 mph - N/A   Clear
5:55 AM -7.6 °F - -9.4 °F 92% 30.08 in 10.0 mi Calm Calm - N/A   Clear
6:15 AM -5.8 °F -14.5 °F -7.6 °F 92% 30.08 in 10.0 mi North 3.5 mph - N/A   Clear
6:35 AM -5.8 °F -14.5 °F -7.6 °F 92% 30.08 in 10.0 mi NNE 3.5 mph - N/A   Clear
6:53 AM -5.8 °F -14.5 °F -7.6 °F 92% 30.09 in 10.0 mi NNW 3.5 mph - N/A   Scattered Clouds
6:55 AM -5.8 °F -14.5 °F -7.6 °F 92% 30.08 in 10.0 mi North 3.5 mph - N/A   Mostly Cloudy
7:55 AM -5.8 °F - -7.6 °F 92% 30.09 in 10.0 mi Calm Calm - N/A   Scattered Clouds
8:58 AM -2.2 °F - -4.0 °F 92% 30.09 in 10.0 mi Calm Calm - N/A   Scattered Clouds
9:51 AM -0.4 °F - -2.2 °F 92% 30.10 in 10.0 mi Calm Calm - N/A   Clear
10:51 AM 1.4 °F - -0.4 °F 92% 30.09 in 10.0 mi Calm Calm - N/A   Clear
11:52 AM 5.0 °F - 3.2 °F 92% 30.08 in 10.0 mi Calm Calm - N/A   Mostly Cloudy
12:51 PM 6.8 °F - 5.0 °F 92% 30.05 in 10.0 mi Calm Calm - N/A   Mostly Cloudy
1:57 PM 8.6 °F - 6.8 °F 92% 30.01 in 7.0 mi Calm Calm - N/A   Overcast
2:56 PM 10.4 °F 4.0 °F 6.8 °F 85% 30.00 in 6.0 mi SE 3.5 mph - N/A Snow Light Snow
3:55 PM 12.2 °F 2.9 °F 10.4 °F 92% 29.98 in 1.0 mi SSE 5.8 mph - N/A Snow Snow
4:51 PM 15.8 °F 8.6 °F 14.0 °F 93% 29.97 in 1.0 mi South 4.6 mph - N/A Snow Light Snow
5:56 PM 17.6 °F 12.3 °F 15.8 °F 93% 29.97 in 2.0 mi ESE 3.5 mph - N/A Snow Light Snow
6:59 PM 24.8 °F 12.9 °F 24.8 °F 100% 29.96 in 5.0 mi SSE 13.8 mph - N/A Snow Light Snow
7:51 PM 24.8 °F 16.9 °F 23.0 °F 93% 29.97 in 9.0 mi South 6.9 mph - N/A   Overcast
8:51 PM 26.6 °F 21.2 °F 23.0 °F 86% 29.96 in 5.0 mi South 4.6 mph - N/A Snow Light Snow
9:15 PM 24.8 °F 12.9 °F 23.0 °F 93% 29.97 in 4.0 mi South 13.8 mph - N/A   Overcast
9:35 PM 24.8 °F 14.0 °F 23.0 °F 93% 29.97 in 8.0 mi SSW 11.5 mph - N/A   Overcast
9:55 PM 24.8 °F 15.3 °F 23.0 °F 93% 29.98 in 9.0 mi SW 9.2 mph - N/A   Overcast
10:15 PM 24.8 °F 16.1 °F 23.0 °F 93% 29.98 in 10.0 mi SW 8.1 mph - N/A   Overcast
10:35 PM 24.8 °F 14.6 °F 23.0 °F 93% 29.98 in 7.0 mi SSW 10.4 mph - N/A   Overcast
10:55 PM 24.8 °F 16.1 °F 23.0 °F 93% 29.97 in 9.0 mi SSW 8.1 mph - N/A   Overcast
11:15 PM 24.8 °F 19.1 °F 23.0 °F 93% 29.97 in 9.0 mi SW 4.6 mph - N/A   Overcast
11:35 PM 24.8 °F 20.5 °F 23.0 °F 93% 29.97 in 10.0 mi SSW 3.5 mph - N/A   Overcast
11:55 PM 24.8 °F 19.1 °F 23.0 °F 93% 29.97 in 9.0 mi SSW 4.6 mph - N/A   Overcast